Year,Month,Day,Hour,Minute,Value (Times are PST for temperature in C)
2013,08,05,00,02,17.20
2013,08,05,00,03,17.20
2013,08,05,00,04,17.20
2013,08,05,00,05,17.10
2013,08,05,00,06,17.10
2013,08,05,00,08,17.10
2013,08,05,00,09,17.10
2013,08,05,00,10,17.10
2013,08,05,00,12,17.10
2013,08,05,00,13,17.00
2013,08,05,00,14,16.90
2013,08,05,00,16,16.90
2013,08,05,00,17,16.80
2013,08,05,00,18,16.80
2013,08,05,00,19,16.80
2013,08,05,00,20,16.70
2013,08,05,00,21,16.70
2013,08,05,00,22,16.70
2013,08,05,00,23,16.70
2013,08,05,00,24,16.70
2013,08,05,00,25,16.60
2013,08,05,00,26,16.60
2013,08,05,00,27,16.60
2013,08,05,00,28,16.60
2013,08,05,00,29,16.50
2013,08,05,00,31,16.50
2013,08,05,00,32,16.40
2013,08,05,00,33,16.40
2013,08,05,00,35,16.40
2013,08,05,00,36,16.30
2013,08,05,00,37,16.30
2013,08,05,00,38,16.20
2013,08,05,00,40,16.20
2013,08,05,00,41,16.20
2013,08,05,00,42,16.10
2013,08,05,00,43,16.10
2013,08,05,00,45,16.00
2013,08,05,00,46,15.90
2013,08,05,00,47,15.80
2013,08,05,00,49,15.80
2013,08,05,00,50,15.70
2013,08,05,00,51,15.70
2013,08,05,00,52,15.70
2013,08,05,00,54,15.70
2013,08,05,00,55,15.60
2013,08,05,00,56,15.60
2013,08,05,00,57,15.60
2013,08,05,00,59,15.60
2013,08,05,01,00,15.50
2013,08,05,01,01,15.50
2013,08,05,01,02,15.50
2013,08,05,01,03,15.50
2013,08,05,01,04,15.50
2013,08,05,01,05,15.40
2013,08,05,01,06,15.50
2013,08,05,01,07,15.40
2013,08,05,01,08,15.40
2013,08,05,01,09,15.40
2013,08,05,01,10,15.40
2013,08,05,01,11,15.40
2013,08,05,01,13,15.40
2013,08,05,01,14,15.40
2013,08,05,01,15,15.40
2013,08,05,01,16,15.40
2013,08,05,01,18,15.30
2013,08,05,01,19,15.30
2013,08,05,01,20,15.30
2013,08,05,01,21,15.30
2013,08,05,01,22,15.30
2013,08,05,01,23,15.30
2013,08,05,01,24,15.30
2013,08,05,01,25,15.30
2013,08,05,01,26,15.30
2013,08,05,01,28,15.20
2013,08,05,01,29,15.20
2013,08,05,01,30,15.20
2013,08,05,01,31,15.20
2013,08,05,01,32,15.20
2013,08,05,01,34,15.20
2013,08,05,01,35,15.20
2013,08,05,01,36,15.10
2013,08,05,01,38,15.10
2013,08,05,01,39,15.10
2013,08,05,01,40,15.10
2013,08,05,01,41,15.10
2013,08,05,01,43,15.10
2013,08,05,01,44,15.10
2013,08,05,01,45,15.10
2013,08,05,01,46,15.10
2013,08,05,01,48,15.10
2013,08,05,01,49,15.10
2013,08,05,01,50,15.10
2013,08,05,01,51,15.10
2013,08,05,01,53,15.00
2013,08,05,01,54,15.10
2013,08,05,01,55,15.00
2013,08,05,01,56,15.00
2013,08,05,01,58,15.00
2013,08,05,01,59,15.00
2013,08,05,02,00,15.00
2013,08,05,02,02,15.00
2013,08,05,02,03,15.00
2013,08,05,02,04,15.00
2013,08,05,02,05,15.00
2013,08,05,02,07,14.90
2013,08,05,02,08,14.90
2013,08,05,02,09,14.90
2013,08,05,02,10,14.90
2013,08,05,02,12,14.90
2013,08,05,02,13,14.90
2013,08,05,02,14,14.90
2013,08,05,02,15,14.90
2013,08,05,02,17,14.80
2013,08,05,02,18,14.80
2013,08,05,02,19,14.80
2013,08,05,02,20,14.80
2013,08,05,02,21,14.80
2013,08,05,02,23,14.80
2013,08,05,02,24,14.80
2013,08,05,02,25,14.80
2013,08,05,02,26,14.80
2013,08,05,02,27,14.70
2013,08,05,02,29,14.70
2013,08,05,02,30,14.70
2013,08,05,02,31,14.70
2013,08,05,02,33,14.70
2013,08,05,02,34,14.70
2013,08,05,02,35,14.70
2013,08,05,02,36,14.70
2013,08,05,02,38,14.70
2013,08,05,02,39,14.60
2013,08,05,02,40,14.60
2013,08,05,02,41,14.60
2013,08,05,02,43,14.60
2013,08,05,02,44,14.60
2013,08,05,02,45,14.60
2013,08,05,02,46,14.60
2013,08,05,02,48,14.50
2013,08,05,02,49,14.40
2013,08,05,02,50,14.40
2013,08,05,02,52,14.40
2013,08,05,02,53,14.40
2013,08,05,02,54,14.30
2013,08,05,02,55,14.30
2013,08,05,02,57,14.30
2013,08,05,02,58,14.30
2013,08,05,02,59,14.30
2013,08,05,03,00,14.30
2013,08,05,03,02,14.20
2013,08,05,03,03,14.10
2013,08,05,03,04,14.10
2013,08,05,03,05,14.00
2013,08,05,03,07,13.90
2013,08,05,03,08,13.80
2013,08,05,03,09,13.80
2013,08,05,03,10,13.70
2013,08,05,03,11,13.70
2013,08,05,03,12,13.70
2013,08,05,03,13,13.60
2013,08,05,03,14,13.60
2013,08,05,03,15,13.50
2013,08,05,03,16,13.50
2013,08,05,03,17,13.40
2013,08,05,03,18,13.40
2013,08,05,03,19,13.40
2013,08,05,03,20,13.30
2013,08,05,03,22,13.30
2013,08,05,03,23,13.20
2013,08,05,03,24,13.20
2013,08,05,03,25,13.20
2013,08,05,03,27,13.20
2013,08,05,03,28,13.10
2013,08,05,03,29,13.10
2013,08,05,03,30,13.10
2013,08,05,03,32,13.10
2013,08,05,03,33,13.10
2013,08,05,03,34,13.00
2013,08,05,03,35,13.00
2013,08,05,03,36,13.00
2013,08,05,03,37,13.00
2013,08,05,03,38,13.00
2013,08,05,03,39,12.90
2013,08,05,03,41,12.90
2013,08,05,03,42,12.90
2013,08,05,03,43,12.90
2013,08,05,03,44,12.90
2013,08,05,03,46,12.90
2013,08,05,03,47,12.80
2013,08,05,03,48,12.80
2013,08,05,03,49,12.80
2013,08,05,03,50,12.80
2013,08,05,03,52,12.80
2013,08,05,03,53,12.80
2013,08,05,03,54,12.80
2013,08,05,03,56,12.80
2013,08,05,03,57,12.80
2013,08,05,03,58,12.80
2013,08,05,03,59,12.80
2013,08,05,04,01,12.70
2013,08,05,04,02,12.70
2013,08,05,04,03,12.70
2013,08,05,04,04,12.70
2013,08,05,04,06,12.70
2013,08,05,04,07,12.70
2013,08,05,04,08,12.70
2013,08,05,04,10,12.70
2013,08,05,04,11,12.70
2013,08,05,04,12,12.70
2013,08,05,04,13,12.70
2013,08,05,04,15,12.80
2013,08,05,04,16,12.80
2013,08,05,04,17,12.80
2013,08,05,04,18,12.80
2013,08,05,04,20,12.80
2013,08,05,04,21,12.90
2013,08,05,04,22,12.90
2013,08,05,04,23,12.90
2013,08,05,04,24,12.90
2013,08,05,04,26,12.80
2013,08,05,04,27,12.80
2013,08,05,04,28,12.80
2013,08,05,04,29,12.80
2013,08,05,04,31,12.80
2013,08,05,04,32,12.80
2013,08,05,04,33,12.80
2013,08,05,04,34,12.80
2013,08,05,04,36,12.80
2013,08,05,04,37,12.80
2013,08,05,04,38,12.80
2013,08,05,04,39,12.80
2013,08,05,04,41,12.80
2013,08,05,04,42,12.70
2013,08,05,04,43,12.70
2013,08,05,04,45,12.70
2013,08,05,04,46,12.70
2013,08,05,04,47,12.70
2013,08,05,04,48,12.70
2013,08,05,04,50,12.70
2013,08,05,04,51,12.70
2013,08,05,04,52,12.70
2013,08,05,04,54,12.70
2013,08,05,04,55,12.70
2013,08,05,04,56,12.70
2013,08,05,04,57,12.70
2013,08,05,04,59,12.60
2013,08,05,05,00,12.60
2013,08,05,05,01,12.60
2013,08,05,05,02,12.60
2013,08,05,05,03,12.60
2013,08,05,05,05,12.60
2013,08,05,05,06,12.50
2013,08,05,05,07,12.50
2013,08,05,05,08,12.40
2013,08,05,05,09,12.40
2013,08,05,05,10,12.40
2013,08,05,05,11,12.40
2013,08,05,05,12,12.40
2013,08,05,05,13,12.40
2013,08,05,05,15,12.40
2013,08,05,05,16,12.40
2013,08,05,05,17,12.40
2013,08,05,05,18,12.40
2013,08,05,05,20,12.40
2013,08,05,05,21,12.40
2013,08,05,05,22,12.40
2013,08,05,05,23,12.40
2013,08,05,05,25,12.40
2013,08,05,05,26,12.40
2013,08,05,05,27,12.40
2013,08,05,05,28,12.40
2013,08,05,05,29,12.40
2013,08,05,05,31,12.40
2013,08,05,05,32,12.40
2013,08,05,05,34,12.40
2013,08,05,05,35,12.40
2013,08,05,05,36,12.40
2013,08,05,05,37,12.40
2013,08,05,05,38,12.40
2013,08,05,05,40,12.40
2013,08,05,05,41,12.40
2013,08,05,05,42,12.40
2013,08,05,05,43,12.40
2013,08,05,05,44,12.40
2013,08,05,05,46,12.40
2013,08,05,05,47,12.50
2013,08,05,05,48,12.50
2013,08,05,05,49,12.50
2013,08,05,05,51,12.50
2013,08,05,05,52,12.40
2013,08,05,05,53,12.40
2013,08,05,05,54,12.40
2013,08,05,05,56,12.40
2013,08,05,05,57,12.40
2013,08,05,05,58,12.40
2013,08,05,05,59,12.40
2013,08,05,06,01,12.40
2013,08,05,06,02,12.40
2013,08,05,06,03,12.40
2013,08,05,06,04,12.30
2013,08,05,06,05,12.30
2013,08,05,06,07,12.30
2013,08,05,06,08,12.30
2013,08,05,06,09,12.40
2013,08,05,06,10,12.40
2013,08,05,06,11,12.40
2013,08,05,06,12,12.40
2013,08,05,06,13,12.40
2013,08,05,06,14,12.40
2013,08,05,06,15,12.40
2013,08,05,06,17,12.40
2013,08,05,06,18,12.50
2013,08,05,06,19,12.60
2013,08,05,06,20,12.60
2013,08,05,06,22,12.60
2013,08,05,06,23,12.70
2013,08,05,06,24,12.80
2013,08,05,06,25,12.90
2013,08,05,06,26,12.90
2013,08,05,06,27,12.90
2013,08,05,06,29,13.00
2013,08,05,06,30,13.10
2013,08,05,06,31,13.10
2013,08,05,06,32,13.10
2013,08,05,06,33,13.10
2013,08,05,06,34,13.00
2013,08,05,06,35,13.10
2013,08,05,06,36,13.00
2013,08,05,06,37,13.00
2013,08,05,06,38,13.00
2013,08,05,06,39,13.00
2013,08,05,06,40,12.90
2013,08,05,06,41,12.90
2013,08,05,06,42,12.90
2013,08,05,06,43,12.90
2013,08,05,06,45,12.90
2013,08,05,06,46,12.90
2013,08,05,06,47,12.80
2013,08,05,06,48,12.80
2013,08,05,06,49,12.80
2013,08,05,06,50,12.80
2013,08,05,06,51,12.80
2013,08,05,06,52,12.80
2013,08,05,06,53,12.80
2013,08,05,06,54,12.70
2013,08,05,06,55,12.70
2013,08,05,06,56,12.70
2013,08,05,06,57,12.70
2013,08,05,06,58,12.70
2013,08,05,06,59,12.70
2013,08,05,07,02,12.70
2013,08,05,07,03,12.80
2013,08,05,07,04,12.80
2013,08,05,07,05,12.80
2013,08,05,07,06,12.80
2013,08,05,07,07,12.80
2013,08,05,07,08,12.80
2013,08,05,07,09,12.80
2013,08,05,07,10,12.80
2013,08,05,07,11,12.80
2013,08,05,07,12,12.90
2013,08,05,07,13,12.90
2013,08,05,07,15,13.00
2013,08,05,07,16,13.10
2013,08,05,07,17,13.10
2013,08,05,07,18,13.10
2013,08,05,07,19,13.20
2013,08,05,07,20,13.20
2013,08,05,07,21,13.20
2013,08,05,07,22,13.20
2013,08,05,07,23,13.30
2013,08,05,07,24,13.30
2013,08,05,07,25,13.30
2013,08,05,07,26,13.40
2013,08,05,07,27,13.40
2013,08,05,07,28,13.50
2013,08,05,07,29,13.60
2013,08,05,07,30,13.60
2013,08,05,07,32,13.70
2013,08,05,07,33,13.80
2013,08,05,07,34,13.80
2013,08,05,07,36,13.90
2013,08,05,07,37,13.90
2013,08,05,07,38,13.90
2013,08,05,07,39,14.00
2013,08,05,07,40,14.10
2013,08,05,07,42,14.10
2013,08,05,07,43,14.10
2013,08,05,07,44,14.30
2013,08,05,07,45,14.30
2013,08,05,07,47,14.40
2013,08,05,07,48,14.60
2013,08,05,07,49,14.70
2013,08,05,07,50,14.70
2013,08,05,07,52,14.80
2013,08,05,07,53,14.80
2013,08,05,07,54,15.00
2013,08,05,07,56,15.10
2013,08,05,07,57,15.10
2013,08,05,07,58,15.20
2013,08,05,07,59,15.30
2013,08,05,08,01,15.30
2013,08,05,08,02,15.40
2013,08,05,08,03,15.60
2013,08,05,08,05,15.60
2013,08,05,08,06,15.70
2013,08,05,08,07,15.80
2013,08,05,08,08,15.90
2013,08,05,08,10,16.00
2013,08,05,08,11,16.10
2013,08,05,08,12,16.20
2013,08,05,08,13,16.30
2013,08,05,08,15,16.30
2013,08,05,08,16,16.40
2013,08,05,08,17,16.50
2013,08,05,08,18,16.50
2013,08,05,08,20,16.60
2013,08,05,08,21,16.70
2013,08,05,08,22,16.70
2013,08,05,08,23,16.80
2013,08,05,08,25,16.90
2013,08,05,08,26,16.90
2013,08,05,08,27,17.10
2013,08,05,08,30,17.20
2013,08,05,08,31,17.20
2013,08,05,08,32,17.20
2013,08,05,08,34,17.20
2013,08,05,08,35,17.20
2013,08,05,08,36,17.20
2013,08,05,08,37,17.30
2013,08,05,08,38,17.30
2013,08,05,08,39,17.30
2013,08,05,08,40,17.30
2013,08,05,08,41,17.30
2013,08,05,08,42,17.30
2013,08,05,08,43,17.30
2013,08,05,08,44,17.40
2013,08,05,08,45,17.40
2013,08,05,08,46,17.40
2013,08,05,08,47,17.40
2013,08,05,08,48,17.40
2013,08,05,08,49,17.40
2013,08,05,08,50,17.40
2013,08,05,08,51,17.40
2013,08,05,08,52,17.40
2013,08,05,08,53,17.50
2013,08,05,08,55,17.50
2013,08,05,08,56,17.60
2013,08,05,08,57,17.60
2013,08,05,08,58,17.60
2013,08,05,08,59,17.60
2013,08,05,09,00,17.60
2013,08,05,09,01,17.60
2013,08,05,09,02,17.60
2013,08,05,09,03,17.60
2013,08,05,09,04,17.70
2013,08,05,09,05,17.70
2013,08,05,09,06,17.70
2013,08,05,09,07,17.80
2013,08,05,09,08,17.80
2013,08,05,09,09,17.90
2013,08,05,09,10,18.00
2013,08,05,09,11,18.00
2013,08,05,09,12,18.10
2013,08,05,09,13,18.20
2013,08,05,09,14,18.20
2013,08,05,09,16,18.20
2013,08,05,09,17,18.30
2013,08,05,09,18,18.30
2013,08,05,09,19,18.40
2013,08,05,09,20,18.40
2013,08,05,09,21,18.60
2013,08,05,09,22,18.60
2013,08,05,09,23,18.70
2013,08,05,09,24,18.80
2013,08,05,09,26,18.90
2013,08,05,09,27,18.90
2013,08,05,09,28,18.80
2013,08,05,09,29,18.80
2013,08,05,09,31,18.80
2013,08,05,09,32,18.80
2013,08,05,09,33,18.80
2013,08,05,09,35,18.80
2013,08,05,09,36,18.90
2013,08,05,09,37,18.90
2013,08,05,09,39,19.10
2013,08,05,09,40,19.10
2013,08,05,09,41,19.20
2013,08,05,09,42,19.30
2013,08,05,09,43,19.40
2013,08,05,09,45,19.60
2013,08,05,09,46,19.70
2013,08,05,09,47,19.80
2013,08,05,09,48,19.80
2013,08,05,09,50,19.80
2013,08,05,09,51,19.80
2013,08,05,09,52,19.80
2013,08,05,09,53,19.80
2013,08,05,09,54,19.80
2013,08,05,09,56,19.80
2013,08,05,09,57,19.70
2013,08,05,09,58,19.80
2013,08,05,09,59,19.80
2013,08,05,10,01,19.90
2013,08,05,10,02,19.90
2013,08,05,10,03,20.00
2013,08,05,10,04,20.10
2013,08,05,10,05,20.10
2013,08,05,10,06,20.10
2013,08,05,10,07,20.10
2013,08,05,10,08,20.10
2013,08,05,10,09,20.10
2013,08,05,10,10,20.10
2013,08,05,10,11,20.20
2013,08,05,10,12,20.30
2013,08,05,10,13,20.40
2013,08,05,10,15,20.40
2013,08,05,10,16,20.50
2013,08,05,10,17,20.60
2013,08,05,10,18,20.70
2013,08,05,10,20,20.70
2013,08,05,10,21,20.80
2013,08,05,10,22,20.90
2013,08,05,10,23,20.90
2013,08,05,10,25,20.90
2013,08,05,10,26,21.00
2013,08,05,10,27,21.10
2013,08,05,10,29,21.20
2013,08,05,10,30,21.30
2013,08,05,10,31,21.30
2013,08,05,10,32,21.30
2013,08,05,10,33,21.30
2013,08,05,10,35,21.30
2013,08,05,10,36,21.30
2013,08,05,10,37,21.40
2013,08,05,10,38,21.50
2013,08,05,10,40,21.60
2013,08,05,10,41,21.60
2013,08,05,10,42,21.50
2013,08,05,10,43,21.60
2013,08,05,10,45,21.60
2013,08,05,10,46,21.70
2013,08,05,10,47,21.80
2013,08,05,10,49,21.80
2013,08,05,10,50,21.80
2013,08,05,10,51,21.80
2013,08,05,10,52,21.70
2013,08,05,10,54,21.60
2013,08,05,10,55,21.60
2013,08,05,10,56,21.50
2013,08,05,10,57,21.40
2013,08,05,10,59,21.40
2013,08,05,11,00,21.30
2013,08,05,11,01,21.20
2013,08,05,11,02,21.20
2013,08,05,11,04,21.10
2013,08,05,11,05,21.10
2013,08,05,11,06,21.20
2013,08,05,11,07,21.30
2013,08,05,11,09,21.30
2013,08,05,11,10,21.30
2013,08,05,11,11,21.30
2013,08,05,11,12,21.40
2013,08,05,11,14,21.50
2013,08,05,11,15,21.60
2013,08,05,11,16,21.70
2013,08,05,11,17,21.80
2013,08,05,11,19,21.80
2013,08,05,11,20,22.00
2013,08,05,11,21,22.10
2013,08,05,11,22,22.10
2013,08,05,11,23,22.20
2013,08,05,11,24,22.20
2013,08,05,11,25,22.20
2013,08,05,11,26,22.30
2013,08,05,11,28,22.30
2013,08,05,11,29,22.30
2013,08,05,11,30,22.30
2013,08,05,11,31,22.20
2013,08,05,11,32,22.20
2013,08,05,11,34,22.10
2013,08,05,11,35,22.10
2013,08,05,11,36,22.10
2013,08,05,11,38,22.10
2013,08,05,11,39,22.10
2013,08,05,11,40,22.10
2013,08,05,11,41,22.10
2013,08,05,11,43,22.10
2013,08,05,11,44,22.10
2013,08,05,11,45,22.10
2013,08,05,11,46,22.20
2013,08,05,11,48,22.20
2013,08,05,11,49,22.30
2013,08,05,11,50,22.30
2013,08,05,11,51,22.20
2013,08,05,11,53,22.20
2013,08,05,11,54,22.20
2013,08,05,11,55,22.30
2013,08,05,11,56,22.30
2013,08,05,11,57,22.30
2013,08,05,11,58,22.20
2013,08,05,11,59,22.20
2013,08,05,12,00,22.20
2013,08,05,12,02,22.20
2013,08,05,12,03,22.20
2013,08,05,12,04,22.20
2013,08,05,12,07,22.30
2013,08,05,12,08,22.40
2013,08,05,12,09,22.40
2013,08,05,12,10,22.40
2013,08,05,12,12,22.40
2013,08,05,12,13,22.40
2013,08,05,12,14,22.50
2013,08,05,12,16,22.50
2013,08,05,12,17,22.50
2013,08,05,12,18,22.50
2013,08,05,12,19,22.60
2013,08,05,12,20,22.60
2013,08,05,12,22,22.70
2013,08,05,12,23,22.70
2013,08,05,12,24,22.70
2013,08,05,12,26,22.70
2013,08,05,12,27,22.70
2013,08,05,12,29,22.70
2013,08,05,12,30,22.60
2013,08,05,12,31,22.60
2013,08,05,12,32,22.40
2013,08,05,12,33,22.30
2013,08,05,12,34,22.30
2013,08,05,12,35,22.30
2013,08,05,12,36,22.20
2013,08,05,12,37,22.20
2013,08,05,12,38,22.20
2013,08,05,12,39,22.20
2013,08,05,12,41,22.00
2013,08,05,12,42,22.00
2013,08,05,12,43,22.00
2013,08,05,12,44,22.00
2013,08,05,12,46,22.10
2013,08,05,12,47,22.20
2013,08,05,12,48,22.20
2013,08,05,12,49,22.30
2013,08,05,12,51,22.30
2013,08,05,12,52,22.40
2013,08,05,12,53,22.60
2013,08,05,12,54,22.60
2013,08,05,12,56,22.70
2013,08,05,12,57,22.80
2013,08,05,12,58,22.80
2013,08,05,12,59,22.70
2013,08,05,13,00,22.60
2013,08,05,13,01,22.40
2013,08,05,13,02,22.20
2013,08,05,13,04,22.20
2013,08,05,13,05,22.20
2013,08,05,13,06,22.20
2013,08,05,13,07,22.10
2013,08,05,13,08,22.10
2013,08,05,13,09,22.00
2013,08,05,13,10,21.90
2013,08,05,13,11,21.90
2013,08,05,13,12,21.90
2013,08,05,13,13,21.90
2013,08,05,13,14,22.00
2013,08,05,13,15,22.10
2013,08,05,13,16,22.10
2013,08,05,13,17,22.20
2013,08,05,13,18,22.20
2013,08,05,13,19,22.20
2013,08,05,13,20,22.20
2013,08,05,13,21,22.10
2013,08,05,13,22,22.10
2013,08,05,13,23,22.10
2013,08,05,13,24,22.10
2013,08,05,13,25,22.10
2013,08,05,13,26,22.10
2013,08,05,13,27,22.20
2013,08,05,13,28,22.20
2013,08,05,13,29,22.30
2013,08,05,13,30,22.40
2013,08,05,13,31,22.40
2013,08,05,13,32,22.50
2013,08,05,13,34,22.60
2013,08,05,13,35,22.70
2013,08,05,13,36,22.70
2013,08,05,13,38,22.60
2013,08,05,13,39,22.60
2013,08,05,13,40,22.60
2013,08,05,13,41,22.70
2013,08,05,13,43,22.80
2013,08,05,13,44,22.90
2013,08,05,13,45,23.10
2013,08,05,13,47,23.20
2013,08,05,13,48,23.20
2013,08,05,13,49,23.30
2013,08,05,13,50,23.30
2013,08,05,13,52,23.30
2013,08,05,13,53,23.30
2013,08,05,13,54,23.40
2013,08,05,13,56,23.40
2013,08,05,13,57,23.40
2013,08,05,13,58,23.40
2013,08,05,14,00,23.40
2013,08,05,14,01,23.40
2013,08,05,14,02,23.30
2013,08,05,14,03,23.30
2013,08,05,14,04,23.30
2013,08,05,14,06,23.40
2013,08,05,14,07,23.40
2013,08,05,14,08,23.50
2013,08,05,14,10,23.60
2013,08,05,14,11,23.70
2013,08,05,14,12,23.60
2013,08,05,14,13,23.60
2013,08,05,14,15,23.60
2013,08,05,14,16,23.60
2013,08,05,14,17,23.60
2013,08,05,14,18,23.60
2013,08,05,14,19,23.70
2013,08,05,14,21,23.70
2013,08,05,14,22,23.70
2013,08,05,14,23,23.70
2013,08,05,14,25,23.60
2013,08,05,14,26,23.60
2013,08,05,14,27,23.50
2013,08,05,14,30,23.50
2013,08,05,14,31,23.60
2013,08,05,14,32,23.70
2013,08,05,14,33,23.70
2013,08,05,14,34,23.70
2013,08,05,14,35,23.80
2013,08,05,14,36,23.80
2013,08,05,14,37,23.90
2013,08,05,14,38,23.90
2013,08,05,14,39,23.90
2013,08,05,14,40,23.90
2013,08,05,14,41,23.90
2013,08,05,14,42,23.90
2013,08,05,14,44,23.90
2013,08,05,14,46,24.10
2013,08,05,14,47,24.10
2013,08,05,14,48,24.00
2013,08,05,14,50,23.90
2013,08,05,14,51,23.90
2013,08,05,14,52,23.90
2013,08,05,14,53,23.90
2013,08,05,14,55,23.90
2013,08,05,14,56,24.10
2013,08,05,14,57,24.10
2013,08,05,14,58,24.10
2013,08,05,14,59,24.20
2013,08,05,15,01,24.10
2013,08,05,15,02,24.20
2013,08,05,15,03,24.30
2013,08,05,15,04,24.20
2013,08,05,15,06,24.30
2013,08,05,15,07,24.30
2013,08,05,15,08,24.30
2013,08,05,15,09,24.30
2013,08,05,15,10,24.30
2013,08,05,15,11,24.30
2013,08,05,15,12,24.30
2013,08,05,15,13,24.30
2013,08,05,15,14,24.40
2013,08,05,15,16,24.40
2013,08,05,15,17,24.60
2013,08,05,15,18,24.60
2013,08,05,15,20,24.70
2013,08,05,15,21,24.80
2013,08,05,15,22,24.80
2013,08,05,15,23,24.90
2013,08,05,15,24,24.90
2013,08,05,15,25,24.80
2013,08,05,15,26,24.80
2013,08,05,15,27,24.80
2013,08,05,15,29,24.80
2013,08,05,15,30,24.80
2013,08,05,15,31,24.70
2013,08,05,15,32,24.70
2013,08,05,15,33,24.70
2013,08,05,15,34,24.60
2013,08,05,15,35,24.50
2013,08,05,15,36,24.50
2013,08,05,15,37,24.50
2013,08,05,15,38,24.60
2013,08,05,15,39,24.60
2013,08,05,15,40,24.60
2013,08,05,15,41,24.60
2013,08,05,15,42,24.60
2013,08,05,15,43,24.70
2013,08,05,15,44,24.70
2013,08,05,15,45,24.80
2013,08,05,15,46,24.80
2013,08,05,15,48,24.80
2013,08,05,15,49,24.70
2013,08,05,15,51,24.60
2013,08,05,15,52,24.60
2013,08,05,15,53,24.60
2013,08,05,15,54,24.60
2013,08,05,15,55,24.50
2013,08,05,15,56,24.40
2013,08,05,15,57,24.30
2013,08,05,15,59,24.30
2013,08,05,16,00,24.40
2013,08,05,16,01,24.40
2013,08,05,16,02,24.60
2013,08,05,16,03,24.60
2013,08,05,16,05,24.60
2013,08,05,16,06,24.60
2013,08,05,16,07,24.60
2013,08,05,16,08,24.70
2013,08,05,16,09,24.80
2013,08,05,16,10,24.90
2013,08,05,16,11,24.90
2013,08,05,16,12,25.00
2013,08,05,16,13,25.10
2013,08,05,16,14,25.10
2013,08,05,16,15,25.10
2013,08,05,16,16,25.20
2013,08,05,16,17,25.20
2013,08,05,16,18,25.20
2013,08,05,16,19,25.20
2013,08,05,16,20,25.20
2013,08,05,16,21,25.20
2013,08,05,16,22,25.20
2013,08,05,16,23,25.20
2013,08,05,16,24,25.20
2013,08,05,16,26,25.20
2013,08,05,16,27,25.20
2013,08,05,16,28,25.20
2013,08,05,16,29,25.20
2013,08,05,16,30,25.20
2013,08,05,16,31,25.30
2013,08,05,16,33,25.30
2013,08,05,16,34,25.30
2013,08,05,16,35,25.30
2013,08,05,16,37,25.30
2013,08,05,16,38,25.20
2013,08,05,16,39,25.10
2013,08,05,16,40,25.00
2013,08,05,16,42,24.90
2013,08,05,16,43,24.90
2013,08,05,16,44,24.90
2013,08,05,16,45,24.80
2013,08,05,16,47,24.80
2013,08,05,16,48,24.80
2013,08,05,16,49,24.80
2013,08,05,16,50,24.70
2013,08,05,16,52,24.70
2013,08,05,16,53,24.60
2013,08,05,16,54,24.40
2013,08,05,16,55,24.40
2013,08,05,16,57,24.40
2013,08,05,16,58,24.40
2013,08,05,16,59,24.30
2013,08,05,17,00,24.30
2013,08,05,17,02,24.20
2013,08,05,17,03,24.10
2013,08,05,17,04,24.10
2013,08,05,17,05,24.10
2013,08,05,17,07,24.20
2013,08,05,17,08,24.20
2013,08,05,17,09,23.90
2013,08,05,17,10,23.70
2013,08,05,17,12,23.60
2013,08,05,17,13,23.60
2013,08,05,17,14,23.60
2013,08,05,17,15,23.60
2013,08,05,17,17,23.40
2013,08,05,17,18,23.40
2013,08,05,17,19,23.20
2013,08,05,17,20,23.10
2013,08,05,17,21,22.90
2013,08,05,17,22,22.80
2013,08,05,17,23,22.60
2013,08,05,17,24,22.40
2013,08,05,17,25,22.30
2013,08,05,17,27,22.30
2013,08,05,17,28,22.20
2013,08,05,17,29,22.20
2013,08,05,17,30,22.20
2013,08,05,17,32,22.20
2013,08,05,17,33,22.20
2013,08,05,17,34,22.10
2013,08,05,17,35,22.00
2013,08,05,17,36,22.00
2013,08,05,17,38,21.90
2013,08,05,17,39,21.90
2013,08,05,17,40,21.80
2013,08,05,17,41,21.80
2013,08,05,17,43,21.80
2013,08,05,17,44,21.80
2013,08,05,17,45,21.80
2013,08,05,17,46,21.80
2013,08,05,17,47,21.70
2013,08,05,17,49,21.70
2013,08,05,17,50,21.60
2013,08,05,17,51,21.60
2013,08,05,17,52,21.40
2013,08,05,17,54,21.30
2013,08,05,17,55,21.20
2013,08,05,17,56,21.20
2013,08,05,17,58,21.20
2013,08,05,17,59,21.10
2013,08,05,18,00,21.00
2013,08,05,18,01,21.00
2013,08,05,18,02,20.90
2013,08,05,18,04,20.90
2013,08,05,18,05,21.00
2013,08,05,18,06,21.00
2013,08,05,18,07,20.90
2013,08,05,18,08,21.00
2013,08,05,18,09,21.00
2013,08,05,18,10,21.00
2013,08,05,18,11,21.10
2013,08,05,18,12,21.10
2013,08,05,18,14,21.20
2013,08,05,18,15,21.20
2013,08,05,18,16,21.20
2013,08,05,18,17,21.20
2013,08,05,18,18,21.20
2013,08,05,18,19,21.20
2013,08,05,18,21,21.20
2013,08,05,18,22,21.10
2013,08,05,18,23,21.10
2013,08,05,18,25,21.10
2013,08,05,18,26,21.00
2013,08,05,18,27,20.90
2013,08,05,18,30,20.80
2013,08,05,18,31,20.70
2013,08,05,18,32,20.60
2013,08,05,18,33,20.60
2013,08,05,18,35,20.60
2013,08,05,18,36,20.40
2013,08,05,18,37,20.40
2013,08,05,18,38,20.30
2013,08,05,18,39,20.30
2013,08,05,18,41,20.30
2013,08,05,18,42,20.30
2013,08,05,18,43,20.30
2013,08,05,18,44,20.30
2013,08,05,18,45,20.30
2013,08,05,18,46,20.30
2013,08,05,18,47,20.30
2013,08,05,18,49,20.30
2013,08,05,18,50,20.30
2013,08,05,18,51,20.30
2013,08,05,18,52,20.40
2013,08,05,18,53,20.40
2013,08,05,18,54,20.40
2013,08,05,18,55,20.40
2013,08,05,18,56,20.40
2013,08,05,18,57,20.40
2013,08,05,18,58,20.40
2013,08,05,18,59,20.40
2013,08,05,19,00,20.40
2013,08,05,19,01,20.40
2013,08,05,19,02,20.30
2013,08,05,19,04,20.30
2013,08,05,19,05,20.30
2013,08,05,19,06,20.30
2013,08,05,19,07,20.20
2013,08,05,19,09,20.20
2013,08,05,19,11,20.10
2013,08,05,19,12,20.10
2013,08,05,19,13,20.10
2013,08,05,19,14,20.10
2013,08,05,19,15,20.10
2013,08,05,19,16,20.10
2013,08,05,19,17,20.00
2013,08,05,19,18,20.00
2013,08,05,19,20,20.00
2013,08,05,19,21,20.10
2013,08,05,19,22,20.10
2013,08,05,19,23,20.10
2013,08,05,19,25,20.10
2013,08,05,19,26,20.10
2013,08,05,19,27,20.00
2013,08,05,19,28,20.00
2013,08,05,19,30,19.90
2013,08,05,19,31,19.90
2013,08,05,19,32,19.90
2013,08,05,19,34,19.90
2013,08,05,19,35,19.90
2013,08,05,19,36,20.00
2013,08,05,19,37,19.90
2013,08,05,19,39,19.90
2013,08,05,19,40,20.00
2013,08,05,19,41,20.00
2013,08,05,19,42,19.90
2013,08,05,19,43,19.90
2013,08,05,19,44,19.90
2013,08,05,19,45,19.90
2013,08,05,19,46,19.90
2013,08,05,19,47,19.90
2013,08,05,19,48,19.90
2013,08,05,19,49,19.90
2013,08,05,19,50,19.90
2013,08,05,19,51,20.00
2013,08,05,19,52,19.90
2013,08,05,19,53,19.90
2013,08,05,19,54,19.90
2013,08,05,19,55,19.90
2013,08,05,19,57,19.90
2013,08,05,19,58,19.80
2013,08,05,19,59,19.80
2013,08,05,20,00,19.80
2013,08,05,20,01,19.80
2013,08,05,20,02,19.70
2013,08,05,20,03,19.70
2013,08,05,20,04,19.70
2013,08,05,20,05,19.70
2013,08,05,20,06,19.70
2013,08,05,20,07,19.70
2013,08,05,20,08,19.60
2013,08,05,20,09,19.60
2013,08,05,20,10,19.50
2013,08,05,20,12,19.50
2013,08,05,20,13,19.40
2013,08,05,20,14,19.40
2013,08,05,20,15,19.40
2013,08,05,20,16,19.30
2013,08,05,20,17,19.30
2013,08,05,20,18,19.30
2013,08,05,20,19,19.20
2013,08,05,20,20,19.20
2013,08,05,20,21,19.10
2013,08,05,20,22,19.10
2013,08,05,20,23,19.10
2013,08,05,20,24,19.10
2013,08,05,20,25,19.10
2013,08,05,20,26,19.00
2013,08,05,20,27,18.90
2013,08,05,20,28,18.90
2013,08,05,20,29,18.90
2013,08,05,20,30,18.80
2013,08,05,20,31,18.80
2013,08,05,20,32,18.80
2013,08,05,20,34,18.70
2013,08,05,20,35,18.70
2013,08,05,20,36,18.70